Retour au catalogue

THOR ABLESTAR DEB

ActifLEO
NORAD 463·DEBRIS·🇺🇸 United States

Lancé Jun 29, 1961 depuis Cape Canaveral Space Force Station

Loading…

Prochains Passages (prochaines 24 heures)

TLE

FraisSource: Space-Track

Époque: Sep 14, 2026, 03:37 UTC

1 00463U 61015EZ  26257.15104865  .00001538  00000-0  35330-3 0  9992
2 00463  66.7653 166.1784 0046143 196.2969 163.6664 14.57652577382094

Suivez THOR ABLESTAR DEB en temps réel avec AllMySat

Download on the App Store